• In Deutschland
  • Länderverzeichnis
  • Für 7 Tage
  • Wassertemperatur
  • Satellitenkarten
  • Wetterkarte
  • Widgets
  • user-avatar
    Anmelden

    Stündliche Wetter Waltrop

    Heute, 17 Oktober, Dienstag

    Zeit Temperatur Niederschläge Wind Luftdruck Luftfeuchtigkeit
    00:00 +18°C° 0 mm 2 m/S 760 mmHg 70%
    01:00 +17°C° 0 mm 2 m/S 760 mmHg 74%
    02:00 +17°C° 0 mm 2 m/S 760 mmHg 78%
    03:00 +16°C° 0 mm 2 m/S 760 mmHg 82%
    04:00 +16°C° 0 mm 2 m/S 760 mmHg 84%
    05:00 +15°C° 0 mm 2 m/S 760 mmHg 87%
    06:00 +15°C° 0 mm 2 m/S 761 mmHg 87%
    07:00 +16°C° 0 mm 2 m/S 761 mmHg 81%
    08:00 +17°C° 0 mm 2 m/S 761 mmHg 76%
    09:00 +18°C° 0 mm 3 m/S 761 mmHg 70%
    10:00 +19°C° 0 mm 3 m/S 760 mmHg 67%
    11:00 +20°C° 0 mm 3 m/S 760 mmHg 64%
    12:00 +20°C° 0 mm 2 m/S 760 mmHg 58%
    13:00 +20°C° 0 mm 2 m/S 760 mmHg 60%
    14:00 +20°C° 0 mm 2 m/S 759 mmHg 61%
    15:00 +21°C° 0 mm 1 m/S 759 mmHg 63%
    16:00 +20°C° 0 mm 1 m/S 759 mmHg 67%
    17:00 +18°C° 0 mm 1 m/S 759 mmHg 71%
    18:00 +16°C° 0 mm 1 m/S 758 mmHg 75%
    19:00 +16°C° 0 mm 1 m/S 758 mmHg 76%
    20:00 +14°C° 0 mm 0 m/S 758 mmHg 77%
    21:00 +14°C° 0 mm 0 m/S 758 mmHg 78%
    22:00 +15°C° 0 mm 1 m/S 758 mmHg 79%
    23:00 +15°C° 0 mm 1 m/S 758 mmHg 81%

    Morgen, 18 Oktober, Mittwoch

    Zeit Temperatur Niederschläge Wind Luftdruck Luftfeuchtigkeit
    00:00 +14°C° 0 mm 1 m/S 757 mmHg 82%
    01:00 +14°C° 0 mm 1 m/S 757 mmHg 83%
    02:00 +14°C° 0 mm 1 m/S 757 mmHg 84%
    03:00 +14°C° 0 mm 1 m/S 756 mmHg 86%
    04:00 +13°C° 0 mm 1 m/S 756 mmHg 86%
    05:00 +13°C° 0 mm 1 m/S 756 mmHg 87%
    06:00 +13°C° 0 mm 1 m/S 756 mmHg 87%
    07:00 +14°C° 0 mm 1 m/S 756 mmHg 82%
    08:00 +16°C° 0 mm 2 m/S 755 mmHg 76%
    09:00 +17°C° 0 mm 2 m/S 755 mmHg 70%
    10:00 +19°C° 0 mm 1 m/S 755 mmHg 65%
    11:00 +20°C° 0 mm 1 m/S 755 mmHg 60%
    12:00 +21°C° 0 mm 1 m/S 755 mmHg 55%
    13:00 +21°C° 0 mm 1 m/S 754 mmHg 57%
    14:00 +21°C° 0 mm 1 m/S 754 mmHg 58%
    15:00 +21°C° 0 mm 1 m/S 754 mmHg 60%
    16:00 +20°C° 0 mm 1 m/S 754 mmHg 64%
    17:00 +19°C° 0 mm 1 m/S 754 mmHg 68%
    18:00 +16°C° 0 mm 1 m/S 754 mmHg 72%
    19:00 +16°C° 0 mm 1 m/S 754 mmHg 74%
    20:00 +15°C° 0 mm 1 m/S 754 mmHg 76%
    21:00 +15°C° 0 mm 2 m/S 754 mmHg 78%
    22:00 +14°C° 0 mm 2 m/S 754 mmHg 79%
    23:00 +14°C° 0 mm 2 m/S 754 mmHg 81%

    übermorgen, 19 Oktober, Donnerstag

    Zeit Temperatur Niederschläge Wind Luftdruck Luftfeuchtigkeit
    00:00 +14°C° 0 mm 2 m/S 754 mmHg 82%
    01:00 +14°C° 0 mm 2 m/S 754 mmHg 83%
    02:00 +13°C° 0 mm 2 m/S 754 mmHg 84%
    03:00 +13°C° 0 mm 2 m/S 754 mmHg 85%
    04:00 +13°C° 0 mm 2 m/S 753 mmHg 85%
    05:00 +13°C° 0 mm 2 m/S 753 mmHg 84%
    06:00 +13°C° 0 mm 2 m/S 753 mmHg 84%
    07:00 +14°C° 0 mm 2 m/S 753 mmHg 78%
    08:00 +16°C° 0 mm 2 m/S 753 mmHg 72%
    09:00 +17°C° 0 mm 2 m/S 753 mmHg 66%
    10:00 +19°C° 0 mm 3 m/S 753 mmHg 61%
    11:00 +20°C° 0 mm 3 m/S 753 mmHg 57%
    12:00 +21°C° 0 mm 3 m/S 753 mmHg 53%
    13:00 +21°C° 0 mm 3 m/S 753 mmHg 53%
    14:00 +21°C° 0 mm 3 m/S 752 mmHg 54%
    15:00 +21°C° 0 mm 3 m/S 752 mmHg 54%
    16:00 +20°C° 0 mm 3 m/S 752 mmHg 56%
    17:00 +19°C° 0 mm 3 m/S 752 mmHg 57%
    18:00 +17°C° 0 mm 3 m/S 752 mmHg 59%
    19:00 +17°C° 0 mm 3 m/S 753 mmHg 58%
    20:00 +17°C° 0 mm 3 m/S 753 mmHg 57%
    21:00 +17°C° 0 mm 3 m/S 753 mmHg 57%
    22:00 +17°C° 0 mm 3 m/S 753 mmHg 59%
    23:00 +16°C° 0 mm 3 m/S 753 mmHg 61%

    20 Oktober, Freitag

    Zeit Temperatur Niederschläge Wind Luftdruck Luftfeuchtigkeit
    00:00 +16°C° 0 mm 3 m/S 753 mmHg 63%
    01:00 +16°C° 0 mm 3 m/S 753 mmHg 65%
    02:00 +14°C° 0 mm 3 m/S 753 mmHg 67%
    03:00 +15°C° 0 mm 2 m/S 753 mmHg 69%
    04:00 +14°C° 0 mm 3 m/S 753 mmHg 68%
    05:00 +14°C° 0 mm 3 m/S 753 mmHg 68%
    06:00 +14°C° 0 mm 3 m/S 753 mmHg 68%
    07:00 +16°C° 0,1 mm 3 m/S 753 mmHg 68%
    08:00 +16°C° 0,1 mm 3 m/S 754 mmHg 68%
    09:00 +17°C° 0,1 mm 4 m/S 754 mmHg 68%
    10:00 +17°C° 0,1 mm 4 m/S 754 mmHg 69%
    11:00 +17°C° 0,1 mm 4 m/S 754 mmHg 70%
    12:00 +18°C° 0,1 mm 4 m/S 753 mmHg 72%
    13:00 +17°C° 0,2 mm 4 m/S 753 mmHg 73%
    14:00 +17°C° 0,2 mm 4 m/S 753 mmHg 74%
    15:00 +17°C° 0,2 mm 4 m/S 753 mmHg 75%
    16:00 +16°C° 0,1 mm 3 m/S 753 mmHg 77%
    17:00 +16°C° 0,1 mm 3 m/S 754 mmHg 80%
    18:00 +14°C° 0,1 mm 3 m/S 754 mmHg 82%
    19:00 +14°C° 0 mm 3 m/S 754 mmHg 83%
    20:00 +13°C° 0 mm 3 m/S 755 mmHg 85%
    21:00 +13°C° 0 mm 3 m/S 755 mmHg 87%
    22:00 +13°C° 0 mm 3 m/S 755 mmHg 87%
    23:00 +13°C° 0 mm 3 m/S 754 mmHg 88%

    21 Oktober, Samstag

    Zeit Temperatur Niederschläge Wind Luftdruck Luftfeuchtigkeit
    00:00 +12°C° 0 mm 3 m/S 754 mmHg 89%
    01:00 +13°C° 0 mm 3 m/S 754 mmHg 88%
    02:00 +13°C° 0 mm 3 m/S 754 mmHg 87%
    03:00 +14°C° 0 mm 3 m/S 753 mmHg 86%
    04:00 +14°C° 0 mm 3 m/S 753 mmHg 85%
    05:00 +14°C° 0 mm 4 m/S 753 mmHg 84%
    06:00 +14°C° 0 mm 4 m/S 753 mmHg 84%
    07:00 +14°C° 0,2 mm 4 m/S 753 mmHg 83%
    08:00 +14°C° 0,2 mm 4 m/S 753 mmHg 82%
    09:00 +15°C° 0,2 mm 5 m/S 753 mmHg 81%
    10:00 +15°C° 0,5 mm 5 m/S 753 mmHg 82%
    11:00 +15°C° 0,5 mm 5 m/S 753 mmHg 83%
    12:00 +15°C° 0,5 mm 5 m/S 753 mmHg 84%
    13:00 +15°C° 0,4 mm 5 m/S 753 mmHg 84%
    14:00 +15°C° 0,4 mm 5 m/S 753 mmHg 83%
    15:00 +15°C° 0,4 mm 5 m/S 753 mmHg 82%
    16:00 +14°C° 0 mm 5 m/S 753 mmHg 81%
    17:00 +14°C° 0 mm 5 m/S 753 mmHg 80%
    18:00 +13°C° 0 mm 5 m/S 754 mmHg 78%
    19:00 +13°C° 0 mm 5 m/S 754 mmHg 78%
    20:00 +12°C° 0 mm 5 m/S 754 mmHg 77%
    21:00 +12°C° 0 mm 5 m/S 754 mmHg 76%
    22:00 +12°C° 0 mm 5 m/S 754 mmHg 75%
    23:00 +12°C° 0 mm 5 m/S 754 mmHg 74%

    22 Oktober, Sonntag

    Zeit Temperatur Niederschläge Wind Luftdruck Luftfeuchtigkeit
    00:00 +10°C° 0 mm 5 m/S 754 mmHg 74%
    01:00 +10°C° 0 mm 5 m/S 754 mmHg 74%
    02:00 +10°C° 0 mm 5 m/S 754 mmHg 74%
    03:00 +9°C° 0 mm 5 m/S 754 mmHg 75%
    04:00 +9°C° 0 mm 6 m/S 754 mmHg 75%
    05:00 +9°C° 0 mm 6 m/S 754 mmHg 75%
    06:00 +9°C° 0 mm 6 m/S 754 mmHg 75%
    07:00 +10°C° 0 mm 6 m/S 754 mmHg 74%
    08:00 +10°C° 0 mm 6 m/S 755 mmHg 73%
    09:00 +10°C° 0 mm 6 m/S 755 mmHg 72%
    10:00 +10°C° 0,1 mm 6 m/S 755 mmHg 72%
    11:00 +10°C° 0,1 mm 6 m/S 755 mmHg 72%
    12:00 +10°C° 0,1 mm 5 m/S 756 mmHg 72%
    13:00 +12°C° 0,2 mm 5 m/S 756 mmHg 71%
    14:00 +12°C° 0,2 mm 5 m/S 756 mmHg 70%
    15:00 +12°C° 0,2 mm 5 m/S 757 mmHg 69%
    16:00 +10°C° 0,1 mm 5 m/S 757 mmHg 71%
    17:00 +10°C° 0,1 mm 4 m/S 758 mmHg 72%
    18:00 +8°C° 0,1 mm 4 m/S 759 mmHg 74%
    19:00 +8°C° 0 mm 4 m/S 759 mmHg 74%
    20:00 +8°C° 0 mm 4 m/S 759 mmHg 74%
    21:00 +7°C° 0 mm 4 m/S 759 mmHg 74%
    22:00 +7°C° 0 mm 4 m/S 760 mmHg 76%
    23:00 +7°C° 0 mm 4 m/S 760 mmHg 79%
    Mehr zeigen